<?xml version="1.0" encoding="UTF-8" standalone="no" ?>
<gpx xmlns="http://www.topografix.com/GPX/1/1" xmlns:xsi="http://www.w3.org/2001/XMLSchema-instance" xsi:schemaLocation="http://www.topografix.com/GPX/1/1 http://www.topografix.com/GPX/1/1/gpx.xsd" version="1.1" creator="VisuGPX - https://www.visugpx.com">
  <metadata>
    <name>Toutes traces 4x4 Côté Brindas</name>
  </metadata>
  <trk>
    <name><![CDATA[Toutes traces 4x4 Côté Brindas_8]]></name>
    <trkseg>
      <trkpt lat="45.71806" lon="4.68612">
        <ele>322.7</ele>
      </trkpt>
      <trkpt lat="45.71738" lon="4.68469">
        <ele>318.8</ele>
      </trkpt>
      <trkpt lat="45.71589" lon="4.6828">
        <ele>327.3</ele>
      </trkpt>
      <trkpt lat="45.71531" lon="4.68232">
        <ele>328.9</ele>
      </trkpt>
      <trkpt lat="45.71506" lon="4.68162">
        <ele>330.8</ele>
      </trkpt>
      <trkpt lat="45.71458" lon="4.68096">
        <ele>332.7</ele>
      </trkpt>
      <trkpt lat="45.71397" lon="4.6804">
        <ele>332</ele>
      </trkpt>
      <trkpt lat="45.71346" lon="4.68061">
        <ele>330.5</ele>
      </trkpt>
      <trkpt lat="45.71275" lon="4.68033">
        <ele>331.3</ele>
      </trkpt>
      <trkpt lat="45.71205" lon="4.68061">
        <ele>329</ele>
      </trkpt>
      <trkpt lat="45.71156" lon="4.6805">
        <ele>329.5</ele>
      </trkpt>
      <trkpt lat="45.7101" lon="4.68127">
        <ele>322.2</ele>
      </trkpt>
      <trkpt lat="45.71003" lon="4.67873">
        <ele>344.7</ele>
      </trkpt>
      <trkpt lat="45.71003" lon="4.67817">
        <ele>348.2</ele>
      </trkpt>
      <trkpt lat="45.71005" lon="4.67751">
        <ele>353</ele>
      </trkpt>
      <trkpt lat="45.70952" lon="4.6751">
        <ele>365.8</ele>
      </trkpt>
      <trkpt lat="45.70964" lon="4.67406">
        <ele>366.5</ele>
      </trkpt>
      <trkpt lat="45.70964" lon="4.67371">
        <ele>365.6</ele>
      </trkpt>
      <trkpt lat="45.70917" lon="4.67284">
        <ele>367.4</ele>
      </trkpt>
      <trkpt lat="45.70896" lon="4.67168">
        <ele>370.7</ele>
      </trkpt>
      <trkpt lat="45.70859" lon="4.67189">
        <ele>371.6</ele>
      </trkpt>
      <trkpt lat="45.70849" lon="4.6712">
        <ele>373.7</ele>
      </trkpt>
      <trkpt lat="45.70827" lon="4.67015">
        <ele>380.8</ele>
      </trkpt>
      <trkpt lat="45.70808" lon="4.66893">
        <ele>390.9</ele>
      </trkpt>
      <trkpt lat="45.70803" lon="4.66806">
        <ele>398.7</ele>
      </trkpt>
      <trkpt lat="45.70835" lon="4.66771">
        <ele>402.7</ele>
      </trkpt>
      <trkpt lat="45.70875" lon="4.66749">
        <ele>404.155</ele>
        <time>2021-07-09T15:39:11Z</time>
      </trkpt>
      <trkpt lat="45.70875" lon="4.66749">
        <ele>404.155</ele>
        <time>2021-07-09T15:39:11Z</time>
      </trkpt>
      <trkpt lat="45.70991" lon="4.66664">
        <ele>403.507</ele>
        <time>2021-07-09T15:39:30Z</time>
      </trkpt>
      <trkpt lat="45.71022" lon="4.66665">
        <ele>405.217</ele>
        <time>2021-07-09T15:39:36Z</time>
      </trkpt>
      <trkpt lat="45.71051" lon="4.66644">
        <ele>407.808</ele>
        <time>2021-07-09T15:39:40Z</time>
      </trkpt>
      <trkpt lat="45.71147" lon="4.66648">
        <ele>414.712</ele>
        <time>2021-07-09T15:39:51Z</time>
      </trkpt>
      <trkpt lat="45.71252" lon="4.66587">
        <ele>416.052</ele>
        <time>2021-07-09T15:40:09Z</time>
      </trkpt>
      <trkpt lat="45.7139" lon="4.66551">
        <ele>416.252</ele>
        <time>2021-07-09T15:41:06Z</time>
      </trkpt>
      <trkpt lat="45.71494" lon="4.66486">
        <ele>419.643</ele>
        <time>2021-07-09T15:41:31Z</time>
      </trkpt>
      <trkpt lat="45.7157" lon="4.66406">
        <ele>426.04</ele>
        <time>2021-07-09T15:41:53Z</time>
      </trkpt>
      <trkpt lat="45.71636" lon="4.66277">
        <ele>433.413</ele>
        <time>2021-07-09T15:42:07Z</time>
      </trkpt>
      <trkpt lat="45.71657" lon="4.66203">
        <ele>434.324</ele>
        <time>2021-07-09T15:42:23Z</time>
      </trkpt>
      <trkpt lat="45.7157" lon="4.66059">
        <ele>447.665</ele>
        <time>2021-07-09T15:43:01Z</time>
      </trkpt>
      <trkpt lat="45.71253" lon="4.65777">
        <ele>503.053</ele>
        <time>2021-07-09T15:44:30Z</time>
      </trkpt>
      <trkpt lat="45.71173" lon="4.65613">
        <ele>514.804</ele>
        <time>2021-07-09T15:45:06Z</time>
      </trkpt>
      <trkpt lat="45.71061" lon="4.65433">
        <ele>524.314</ele>
        <time>2021-07-09T15:45:49Z</time>
      </trkpt>
      <trkpt lat="45.71058" lon="4.65419">
        <ele>526.108</ele>
        <time>2021-07-09T15:45:54Z</time>
      </trkpt>
      <trkpt lat="45.71114" lon="4.65368">
        <ele>532.412</ele>
        <time>2021-07-09T15:46:07Z</time>
      </trkpt>
      <trkpt lat="45.7111" lon="4.65337">
        <ele>534.222</ele>
        <time>2021-07-09T15:46:10Z</time>
      </trkpt>
      <trkpt lat="45.71052" lon="4.65272">
        <ele>540.192</ele>
        <time>2021-07-09T15:46:22Z</time>
      </trkpt>
      <trkpt lat="45.71092" lon="4.65046">
        <ele>564.043</ele>
        <time>2021-07-09T15:47:21Z</time>
      </trkpt>
      <trkpt lat="45.71092" lon="4.64944">
        <ele>565.23</ele>
        <time>2021-07-09T15:48:15Z</time>
      </trkpt>
      <trkpt lat="45.71059" lon="4.64759">
        <ele>553.513</ele>
        <time>2021-07-09T15:49:20Z</time>
      </trkpt>
      <trkpt lat="45.71028" lon="4.6467">
        <ele>545.944</ele>
        <time>2021-07-09T15:49:41Z</time>
      </trkpt>
      <trkpt lat="45.71005" lon="4.64469">
        <ele>536.235</ele>
        <time>2021-07-09T15:50:22Z</time>
      </trkpt>
      <trkpt lat="45.71043" lon="4.64501">
        <ele>530.496</ele>
        <time>2021-07-09T15:50:49Z</time>
      </trkpt>
      <trkpt lat="45.71078" lon="4.64461">
        <ele>530.331</ele>
        <time>2021-07-09T15:51:12Z</time>
      </trkpt>
      <trkpt lat="45.71154" lon="4.64419">
        <ele>534.624</ele>
        <time>2021-07-09T15:51:21Z</time>
      </trkpt>
      <trkpt lat="45.71249" lon="4.64237">
        <ele>527.208</ele>
        <time>2021-07-09T15:52:31Z</time>
      </trkpt>
      <trkpt lat="45.71281" lon="4.64086">
        <ele>510.836</ele>
        <time>2021-07-09T15:53:36Z</time>
      </trkpt>
      <trkpt lat="45.71258" lon="4.63881">
        <ele>497.636</ele>
        <time>2021-07-09T15:54:27Z</time>
      </trkpt>
      <trkpt lat="45.71273" lon="4.63727">
        <ele>492.086</ele>
        <time>2021-07-09T15:54:52Z</time>
      </trkpt>
      <trkpt lat="45.71347" lon="4.63587">
        <ele>485.027</ele>
        <time>2021-07-09T15:55:25Z</time>
      </trkpt>
      <trkpt lat="45.71401" lon="4.63526">
        <ele>482.034</ele>
        <time>2021-07-09T15:55:38Z</time>
      </trkpt>
      <trkpt lat="45.71435" lon="4.63425">
        <ele>473.687</ele>
        <time>2021-07-09T15:56:07Z</time>
      </trkpt>
      <trkpt lat="45.71431" lon="4.6334">
        <ele>465.418</ele>
        <time>2021-07-09T15:56:29Z</time>
      </trkpt>
      <trkpt lat="45.7141" lon="4.63258">
        <ele>452.469</ele>
        <time>2021-07-09T15:57:03Z</time>
      </trkpt>
      <trkpt lat="45.7128" lon="4.63176">
        <ele>437.816</ele>
        <time>2021-07-09T15:58:01Z</time>
      </trkpt>
    </trkseg>
  </trk>
</gpx>